This demonstration page uses our WeatherBlox Daily Observations layout. Learn more.

Left ArrowRight Arrow

Hourly Observations for July 24, 2019

Temp ( °F °C ) Dew Point ( °F °C ) Humidity (%) Winds ( mph kmh ) Pressure ( in mb ) Visibility ( mi km ) Precip ( " mm )
12:56 am 00:56 Clear 61 16.1 57 13.9 87 87 SE 8 13 30.21 1023 10 16 0.00 0.00
2:56 am 02:56 Clear 60 15.6 56 13.3 86 86 SSE 7 11 30.20 1023 10 16 0.00 0.00
3:56 am 03:56 Mostly Clear 60 15.6 56 13.3 86 86 SSE 8 13 30.19 1022 10 16 0.00 0.00
4:56 am 04:56 Clear 59 15 55 12.8 87 87 SSE 6 9 30.19 1022 10 16 0.00 0.00
5:56 am 05:56 Cloudy 59 15 56 13.3 90 90 SE 6 9 30.21 1023 10 16 0.00 0.00
6:56 am 06:56 Partly Cloudy 58 14.4 56 13.3 93 93 S 6 9 30.22 1023 10 16 0.00 0.00
7:56 am 07:56 Mostly Sunny 62 16.7 57 13.9 84 84 S 7 11 30.22 1023 10 16 0.00 0.00
8:56 am 08:56 Sunny 67 19.4 57 13.9 71 71 SSE 16 26 30.21 1023 10 16 0.00 0.00
9:56 am 09:56 Sunny 71 21.7 59 15 66 66 SSE 15 24 30.19 1022 10 16 0.00 0.00
10:56 am 10:56 Sunny 73 22.8 59 15 62 62 S 15 24 30.16 1022 10 16 0.00 0.00
11:56 am 11:56 Mostly Sunny 75 23.9 60 15.6 60 60 SSE 16 26 30.14 1021 10 16 0.00 0.00
1:56 pm 13:56 Sunny 80 26.7 61 16.1 52 52 S 10 17 30.10 1019 10 16 0.00 0.00
2:56 pm 14:56 Sunny 81 27.2 61 16.1 51 51 SSE 15 24 30.09 1019 10 16 0.00 0.00
3:56 pm 15:56 Sunny 82 27.8 61 16.1 49 49 SSE 16 26 30.06 1018 10 16 0.00 0.00
4:56 pm 16:56 Sunny 82 27.8 61 16.1 49 49 S 16 26 30.05 1018 10 16 0.00 0.00
5:56 pm 17:56 Sunny 82 27.8 61 16.1 49 49 SSE 14 22 30.03 1017 10 16 0.00 0.00
6:56 pm 18:56 Sunny 81 27.2 62 16.7 53 53 SE 16 26 30.02 1017 10 16 0.00 0.00
7:56 pm 19:56 Sunny 78 25.6 62 16.7 58 58 SE 12 19 30.01 1016 10 16 0.00 0.00
8:56 pm 20:56 Sunny 74 23.3 61 16.1 64 64 SE 13 20 30.00 1016 10 16 0.00 0.00
9:56 pm 21:56 Clear 70 21.1 62 16.7 76 76 SE 10 17 30.01 1016 10 16 0.00 0.00
10:56 pm 22:56 Clear 70 21.1 62 16.7 76 76 SSE 14 22 30.00 1016 10 16 0.00 0.00
11:56 pm 23:56 Clear 70 21.1 60 15.6 71 71 SSE 14 22 30.02 1017 10 16 0.00 0.00

Powered by AerisWeather